Date,TemperatureHighF,TemperatureAvgF,TemperatureLowF,DewpointHighF,DewpointAvgF,DewpointLowF,HumidityHigh,HumidityAvg,HumidityLow,PressureMaxIn,PressureMinIn,WindSpeedMaxMPH,WindSpeedAvgMPH,GustSpeedMaxMPH,PrecipitationSumIn
2013-1-1,77.8,65.5,52.7,67.6,60.9,49.0,93,85,69,30.04,29.84,27,6,27,0.24
2013-1-2,52.7,47.6,43.5,48.9,43.6,40.2,90,86,80,30.23,30.03,20,5,20,0.09
2013-1-3,49.4,44.3,39.8,40.4,35.5,32.4,91,72,56,30.35,30.18,19,5,19,0.22
2013-1-4,55.2,47.9,41.8,43.3,35.6,32.4,78,63,46,30.41,30.28,20,3,20,0.00
2013-1-5,51.7,49.9,47.4,44.6,41.3,38.3,78,72,64,30.32,30.17,14,3,14,0.00
2013-1-6,51.6,49.0,46.0,47.7,45.1,42.3,93,87,71,30.26,30.12,17,4,17,0.81
2013-1-7,54.7,49.8,45.0,47.7,43.7,40.3,89,80,65,30.27,30.13,20,4,20,0.01
2013-1-8,59.0,54.7,51.1,58.4,51.4,45.8,98,89,81,30.16,30.03,19,4,19,1.06
2013-1-9,69.0,64.1,59.0,68.1,62.8,57.9,97,96,93,30.13,30.01,15,3,15,0.88
2013-1-10,71.9,67.9,64.3,70.5,66.1,62.4,97,94,91,30.14,29.92,27,7,27,1.52
2013-1-11,74.2,70.5,66.9,71.7,68.4,65.2,95,93,88,30.05,29.95,20,4,20,0.06
2013-1-12,78.7,72.8,69.4,71.8,69.3,66.5,97,89,68,30.00,29.86,25,7,25,0.01
2013-1-13,77.4,68.3,52.0,72.2,65.6,49.8,95,91,81,30.03,29.82,28,7,28,0.59
2013-1-14,52.6,49.1,42.7,51.1,47.2,40.2,95,93,91,30.12,30.00,20,5,20,0.17
2013-1-15,51.8,48.9,46.4,50.4,47.4,44.5,95,94,93,30.05,29.90,15,2,15,0.02
2013-1-16,47.0,41.2,39.3,45.5,38.8,36.2,98,91,88,30.14,29.96,20,6,20,0.19
2013-1-17,53.5,45.8,38.4,39.3,37.0,34.8,90,73,53,30.39,30.14,21,6,21,0.00
2013-1-18,53.7,46.8,41.4,43.0,39.4,36.5,89,76,64,30.49,30.35,16,3,16,0.00
2013-1-19,61.7,53.2,42.9,50.0,46.1,39.0,90,77,60,30.35,30.18,11,1,11,0.00
2013-1-20,63.4,54.2,45.8,52.8,47.2,43.9,94,78,52,30.23,30.08,8,1,8,0.00
2013-1-21,65.0,55.8,46.7,49.4,46.5,43.4,92,73,51,30.18,30.09,11,1,11,0.00
2013-1-22,57.9,52.4,47.8,49.0,44.1,37.8,84,74,60,30.32,30.17,14,2,14,0.00
2013-1-23,70.8,58.4,47.4,55.6,49.6,44.6,93,75,46,30.35,30.23,12,2,12,0.00
2013-1-24,72.9,62.6,54.5,59.4,55.7,51.3,92,79,60,30.29,30.17,13,2,13,0.00
2013-1-25,74.5,64.9,57.7,61.7,58.0,54.0,92,79,63,30.21,30.09,19,2,19,0.00
2013-1-26,74.0,64.5,55.1,64.8,59.0,53.1,93,83,65,30.20,30.12,12,1,12,0.00
2013-1-27,73.6,66.4,60.5,62.3,60.2,57.3,91,81,64,30.22,30.13,19,5,19,0.00
2013-1-28,76.4,68.2,60.5,67.5,63.4,57.6,92,85,72,30.19,30.06,17,5,17,0.00
2013-1-29,79.1,73.2,68.3,71.1,68.5,65.6,92,85,73,30.06,29.73,28,7,28,0.00
2013-1-30,74.6,61.0,46.7,70.0,51.0,33.7,92,71,45,30.17,29.63,31,10,31,0.95
2013-1-31,60.4,50.0,40.3,40.0,35.3,27.9,83,59,32,30.32,30.16,12,2,12,0.00